EW0538 Weather Reports


Display with metric or nautical units.
time (UTC)temp
F
wind
direction
speed
MPH
gust
MPH
rain 1hr
in
rain 24hr
in
rain mn
in
humidity
%
barometer
mb
20260503032255 50 39 0.0 0.0 0.00 0.00 0.00 33 1015.5
20260503031321 50 39 0.0 0.0 0.00 0.00 0.00 29 1015.4
20260503030310 51 39 0.0 0.0 0.00 0.00 0.00 26 1015.3
20260503025257 53 39 0.0 0.0 0.00 0.00 0.00 25 1015.2
20260503024318 54 17 0.0 2.0 0.00 0.00 0.00 22 1014.9
20260503022202 55 57 0.0 0.0 0.00 0.00 0.00 20 1014.4
20260503021209 56 57 0.0 1.0 0.00 0.00 0.00 20 1014.2
20260503020204 58 195 0.0 0.0 0.00 0.00 0.00 19 1014.1
20260503015147 60 197 0.0 0.0 0.00 0.00 0.00 16 1013.9
20260503014152 62 113 0.0 0.0 0.00 0.00 0.00 12 1013.9
20260503010931 64 196 1.0 7.0 0.00 0.00 0.00 12 1013.6
20260503005939 64 152 1.0 5.0 0.00 0.00 0.00 11 1013.6
20260503004914 65 127 1.0 1.0 0.00 0.00 0.00 12 1013.6
20260503003845 65 167 1.0 4.0 0.00 0.00 0.00 12 1013.7
20260503002831 65 144 0.0 4.0 0.00 0.00 0.00 11 1013.8
20260503001841 65 141 0.0 1.0 0.00 0.00 0.00 14 1013.8
20260503000851 65 89 0.0 4.0 0.00 0.00 0.00 14 1013.9
20260502235820 66 222 0.0 3.0 0.00 0.00 0.00 12 1014.0
20260502234749 66 150 0.0 1.0 0.00 0.00 0.00 13 1014.1
20260502233718 65 100 2.0 8.0 0.00 0.00 0.00 10 1014.2
20260502232705 65 127 0.0 2.0 0.00 0.00 0.00 12 1014.2
20260502230552 65 193 0.0 0.0 0.00 0.00 0.00 13 1014.5
20260502225534 65 219 0.0 3.0 0.00 0.00 0.00 12 1014.6
20260502224543 65 161 0.0 4.0 0.00 0.00 0.00 11 1014.5
20260502223552 65 191 0.0 5.0 0.00 0.00 0.00 11 1014.6
20260502222532 67 147 0.0 5.0 0.00 0.00 0.00 11 1014.7
20260502220357 67 144 1.0 3.0 0.00 0.00 0.00 9 1015.1
20260502215352 67 213 1.0 8.0 0.00 0.00 0.00 10 1015.1
20260502214329 67 0 1.0 4.0 0.00 0.00 0.00 11 1015.5
20260502213334 67 200 1.0 7.0 0.00 0.00 0.00 10 1015.7
20260502212307 67 219 1.0 8.0 0.00 0.00 0.00 11 1015.9
20260502211251 67 158 1.0 6.0 0.00 0.00 0.00 10 1016.1
20260502210252 66 172 1.0 8.0 0.00 0.00 0.00 10 1016.3
20260502205311 66 195 1.0 4.0 0.00 0.00 0.00 10 1016.4
20260502204306 65 150 1.0 4.0 0.00 0.00 0.00 10 1016.5
20260502203314 65 200 1.0 5.0 0.00 0.00 0.00 12 1016.5
20260502202242 65 155 2.0 11.0 0.00 0.00 0.00 10 1016.8
20260502200121 64 32 1.0 6.0 0.00 0.00 0.00 11 1017.0
20260502195057 64 205 1.0 6.0 0.00 0.00 0.00 13 1017.2
20260502192940 63 248 0.0 4.0 0.00 0.00 0.00 12 1017.6
20260502191957 63 198 1.0 6.0 0.00 0.00 0.00 16 1017.9
20260502191002 62 205 2.0 7.0 0.00 0.00 0.00 17 1018.1
20260502190008 61 224 2.0 7.0 0.00 0.00 0.00 15 1018.4
20260502185031 61 78 2.0 7.0 0.00 0.00 0.00 15 1018.6
20260502182836 61 177 2.0 7.0 0.00 0.00 0.00 16 1019.1
20260502181826 61 206 1.0 5.0 0.00 0.00 0.00 17 1019.2
20260502162624 54 259 0.0 2.0 0.00 0.00 0.00 28 1021.5
20260502161604 53 194 0.0 3.0 0.00 0.00 0.00 28 1021.7
20260502152320 47 224 0.0 4.0 0.00 0.00 0.00 38 1022.5
20260502151255 46 197 1.0 4.0 0.00 0.00 0.00 36 1022.7
20260502150228 45 191 1.0 3.0 0.00 0.00 0.00 39 1023.0
20260502130140 29 61 0.0 0.0 0.00 0.00 0.00 67 1023.1
20260502123010 28 61 0.0 0.0 0.00 0.00 0.00 67 1022.7
20260502122030 28 61 0.0 0.0 0.00 0.00 0.00 66 1022.7
20260502115916 28 61 0.0 0.0 0.00 0.00 0.00 65 1022.4
20260502114903 28 61 0.0 0.0 0.00 0.00 0.00 64 1022.4
20260502113903 28 61 0.0 0.0 0.00 0.00 0.00 65 1022.3
20260502112905 28 61 0.0 0.0 0.00 0.00 0.00 66 1022.1
20260502111907 28 88 0.0 0.0 0.00 0.00 0.00 66 1022.1
20260502110928 29 88 0.0 0.0 0.00 0.00 0.00 64 1021.9
20260502105923 29 87 0.0 0.0 0.00 0.00 0.00 64 1021.9
20260502104909 29 88 0.0 0.0 0.00 0.00 0.00 64 1021.7
20260502102710 30 87 0.0 0.0 0.00 0.00 0.00 64 1021.4
20260502101646 30 88 0.0 0.0 0.00 0.00 0.00 63 1021.3
20260502100620 30 88 0.0 0.0 0.00 0.00 0.00 62 1021.0
20260502091427 30 87 0.0 0.0 0.00 0.00 0.00 62 1020.3
20260502071251 32 165 0.0 0.0 0.00 0.00 0.00 83 1020.1
20260502070238 33 165 0.0 0.0 0.00 0.00 0.00 83 1019.9
20260502064102 33 165 0.0 0.0 0.00 0.00 0.00 79 1019.5
20260502063031 33 241 0.0 0.0 0.00 0.00 0.00 80 1019.4
20260502062042 34 241 0.0 0.0 0.00 0.00 0.00 83 1019.4
20260502061038 34 138 0.0 0.0 0.00 0.00 0.00 80 1019.3
20260502060035 34 158 0.0 0.0 0.00 0.00 0.00 80 1019.1
20260502052749 36 163 0.0 0.0 0.00 0.00 0.00 74 1018.8
20260502051717 37 164 0.0 0.0 0.00 0.00 0.00 72 1018.7
20260502050724 37 225 0.0 0.0 0.00 0.00 0.00 69 1018.6
20260502045739 38 75 0.0 0.0 0.00 0.00 0.00 70 1018.5
20260502044747 38 158 0.0 0.0 0.00 0.00 0.00 71 1018.4
20260502043750 38 158 0.0 0.0 0.00 0.00 0.00 70 1018.2
20260502042806 39 131 0.0 0.0 0.00 0.00 0.00 68 1018.0
20260502041743 40 156 0.0 0.0 0.00 0.00 0.00 71 1018.0
20260502040752 41 142 0.0 0.0 0.00 0.00 0.00 69 1017.7
20260502035756 41 258 0.0 0.0 0.00 0.00 0.00 68 1017.5
20260502034802 42 156 0.0 0.0 0.00 0.00 0.00 65 1017.5
20260502033814 43 156 0.0 0.0 0.00 0.00 0.00 60 1017.1